TimeMDT,TemperatureF,Dew PointF,Humidity,Sea Level PressureIn,VisibilityMPH,Wind Direction,Wind SpeedMPH,Gust SpeedMPH,PrecipitationIn,Events,Conditions,WindDirDegrees,DateUTC
12:48 AM,55.0,51.1,86,29.73,-9999.0,Calm,Calm,-,N/A,,Unknown,0,2013-06-24 06:48:00
1:48 AM,54.0,51.1,90,29.73,-9999.0,East,4.6,-,N/A,,Unknown,100,2013-06-24 07:48:00
2:48 AM,53.1,50.0,89,29.72,-9999.0,Calm,Calm,-,N/A,,Unknown,0,2013-06-24 08:48:00
3:48 AM,52.0,50.0,93,29.70,-9999.0,Calm,Calm,-,N/A,,Unknown,0,2013-06-24 09:48:00
4:48 AM,50.0,48.0,93,29.70,-9999.0,Calm,Calm,-,N/A,,Unknown,0,2013-06-24 10:48:00
5:48 AM,51.1,48.9,92,29.70,-9999.0,Calm,Calm,-,N/A,,Unknown,0,2013-06-24 11:48:00
6:48 AM,55.0,52.0,89,29.68,-9999.0,Calm,Calm,-,N/A,,Unknown,0,2013-06-24 12:48:00
7:48 AM,62.1,52.0,70,29.66,-9999.0,East,6.9,-,N/A,,Unknown,80,2013-06-24 13:48:00
8:48 AM,66.9,54.0,63,29.65,-9999.0,Calm,Calm,-,N/A,,Unknown,0,2013-06-24 14:48:00
9:48 AM,72.0,57.0,59,29.66,-9999.0,East,5.8,-,N/A,,Unknown,80,2013-06-24 15:48:00
10:48 AM,73.0,57.0,57,29.65,-9999.0,SE,4.6,-,N/A,,Unknown,130,2013-06-24 16:48:00
11:48 AM,78.1,59.0,52,29.63,-9999.0,East,8.1,-,N/A,,Unknown,80,2013-06-24 17:48:00
1:48 PM,82.0,57.9,44,29.60,-9999.0,East,12.7,18.4,N/A,,Unknown,100,2013-06-24 19:48:00
2:48 PM,84.9,60.1,43,29.58,-9999.0,ESE,11.5,-,N/A,,Unknown,110,2013-06-24 20:48:00
4:48 PM,84.9,57.9,40,29.56,-9999.0,SE,11.5,-,N/A,,Unknown,130,2013-06-24 22:48:00
6:48 PM,81.0,62.1,52,29.55,-9999.0,SE,10.4,-,N/A,,Unknown,130,2013-06-25 00:48:00
8:48 PM,75.0,66.0,73,29.55,-9999.0,East,6.9,-,N/A,,Unknown,80,2013-06-25 02:48:00
9:48 PM,73.0,66.0,79,29.52,-9999.0,East,8.1,-,N/A,,Unknown,90,2013-06-25 03:48:00
10:48 PM,72.0,64.0,76,29.51,-9999.0,East,6.9,-,N/A,,Unknown,80,2013-06-25 04:48:00
11:48 PM,73.9,63.0,68,29.54,-9999.0,Calm,Calm,-,N/A,,Unknown,0,2013-06-25 05:48:00